Time,TemperatureF,DewpointF,PressureIn,WindDirection,WindDirectionDegrees,WindSpeedMPH,WindSpeedGustMPH,Humidity,HourlyPrecipIn,Conditions,Clouds,dailyrainin,SoftwareType,DateUTC
2013-08-13 00:15:00,70.9,67.0,29.82,WSW,251,12.0,-999.0,87,-99.99,,,0.03,weatherlink.com 1.10,2013-08-13 04:15:00,
2013-08-13 00:30:00,71.0,67.0,29.81,West,280,2.0,-999.0,87,-99.99,,,0.03,weatherlink.com 1.10,2013-08-13 04:30:00,
2013-08-13 00:45:00,71.0,67.0,29.81,West,280,0.0,-999.0,88,-99.99,,,0.03,weatherlink.com 1.10,2013-08-13 04:45:00,
2013-08-13 01:00:00,70.8,68.0,29.81,West,280,0.0,-999.0,89,-99.99,,,0.03,weatherlink.com 1.10,2013-08-13 05:00:00,
2013-08-13 01:15:00,70.5,67.0,29.81,West,280,0.0,-999.0,89,-99.99,,,0.03,weatherlink.com 1.10,2013-08-13 05:15:00,
2013-08-13 01:30:00,70.0,67.0,29.82,West,280,4.0,-999.0,91,-99.99,,,0.03,weatherlink.com 1.10,2013-08-13 05:30:00,
2013-08-13 01:45:00,69.9,66.0,29.82,West,281,1.0,-999.0,88,-99.99,,,0.03,weatherlink.com 1.10,2013-08-13 05:45:00,
2013-08-13 02:00:00,69.5,66.0,29.81,West,280,6.0,-999.0,88,-99.99,,,0.03,weatherlink.com 1.10,2013-08-13 06:00:00,
2013-08-13 02:15:00,68.8,66.0,29.81,West,281,4.0,-999.0,89,-99.99,,,0.03,weatherlink.com 1.10,2013-08-13 06:15:00,
2013-08-13 02:30:00,68.1,65.0,29.81,West,281,4.0,-999.0,90,-99.99,,,0.03,weatherlink.com 1.10,2013-08-13 06:30:00,
2013-08-13 02:45:00,67.7,65.0,29.81,West,280,5.0,-999.0,91,-99.99,,,0.03,weatherlink.com 1.10,2013-08-13 06:45:00,
2013-08-13 03:00:00,67.6,65.0,29.80,West,281,2.0,-999.0,91,-99.99,,,0.03,weatherlink.com 1.10,2013-08-13 07:00:00,
2013-08-13 03:15:00,67.4,65.0,29.80,West,281,6.0,-999.0,92,-99.99,,,0.03,weatherlink.com 1.10,2013-08-13 07:15:00,
2013-08-13 03:31:00,67.0,65.0,29.81,West,281,2.0,-999.0,92,-99.99,,,0.03,weatherlink.com 1.10,2013-08-13 07:31:00,
2013-08-13 03:46:00,66.5,65.0,29.81,West,281,4.0,-999.0,93,-99.99,,,0.03,weatherlink.com 1.10,2013-08-13 07:46:00,
2013-08-13 04:01:00,66.1,64.0,29.81,West,281,1.0,-999.0,93,-99.99,,,0.03,weatherlink.com 1.10,2013-08-13 08:01:00,
2013-08-13 04:16:00,65.8,64.0,29.81,West,281,5.0,-999.0,94,-99.99,,,0.03,weatherlink.com 1.10,2013-08-13 08:16:00,
2013-08-13 04:31:00,65.6,64.0,29.82,West,281,5.0,-999.0,94,-99.99,,,0.03,weatherlink.com 1.10,2013-08-13 08:31:00,
2013-08-13 04:46:00,65.2,64.0,29.82,West,281,2.0,-999.0,94,-99.99,,,0.03,weatherlink.com 1.10,2013-08-13 08:46:00,
2013-08-13 05:01:00,65.0,64.0,29.82,West,281,6.0,-999.0,95,-99.99,,,0.00,weatherlink.com 1.10,2013-08-13 09:01:00,
2013-08-13 05:16:00,64.7,63.0,29.82,West,281,6.0,-999.0,95,-99.99,,,0.00,weatherlink.com 1.10,2013-08-13 09:16:00,
2013-08-13 05:31:00,64.4,63.0,29.83,West,281,5.0,-999.0,95,-99.99,,,0.00,weatherlink.com 1.10,2013-08-13 09:31:00,
2013-08-13 05:46:00,64.1,63.0,29.83,West,281,5.0,-999.0,95,-99.99,,,0.00,weatherlink.com 1.10,2013-08-13 09:46:00,
2013-08-13 06:01:00,63.8,62.0,29.84,West,281,6.0,-999.0,95,-99.99,,,0.00,weatherlink.com 1.10,2013-08-13 10:01:00,
2013-08-13 06:16:00,63.6,62.0,29.84,WNW,282,6.0,-999.0,95,-99.99,,,0.00,weatherlink.com 1.10,2013-08-13 10:16:00,
2013-08-13 06:32:00,63.6,62.0,29.84,WNW,287,8.0,-999.0,94,-99.99,,,0.00,weatherlink.com 1.10,2013-08-13 10:32:00,
2013-08-13 06:47:00,63.2,62.0,29.85,WNW,290,5.0,-999.0,94,-99.99,,,0.00,weatherlink.com 1.10,2013-08-13 10:47:00,
2013-08-13 07:02:00,62.9,61.0,29.85,NW,307,7.0,-999.0,93,-99.99,,,0.00,weatherlink.com 1.10,2013-08-13 11:02:00,
2013-08-13 07:17:00,62.7,60.0,29.85,NNW,327,6.0,-999.0,92,-99.99,,,0.00,weatherlink.com 1.10,2013-08-13 11:17:00,
2013-08-13 07:32:00,62.6,60.0,29.86,NNW,338,7.0,-999.0,92,-99.99,,,0.00,weatherlink.com 1.10,2013-08-13 11:32:00,
2013-08-13 07:47:00,62.5,60.0,29.87,NNW,331,4.0,-999.0,91,-99.99,,,0.00,weatherlink.com 1.10,2013-08-13 11:47:00,
2013-08-13 08:02:00,62.4,60.0,29.88,NNW,341,11.0,-999.0,90,-99.99,,,0.00,weatherlink.com 1.10,2013-08-13 12:02:00,
2013-08-13 08:17:00,62.5,59.0,29.88,NNW,345,9.0,-999.0,89,-99.99,,,0.00,weatherlink.com 1.10,2013-08-13 12:17:00,
2013-08-13 08:32:00,62.7,60.0,29.89,North,355,7.0,-999.0,89,-99.99,,,0.00,weatherlink.com 1.10,2013-08-13 12:32:00,
2013-08-13 08:47:00,63.4,60.0,29.90,NNW,340,5.0,-999.0,89,-99.99,,,0.00,weatherlink.com 1.10,2013-08-13 12:47:00,
2013-08-13 09:03:00,63.0,59.0,29.90,NNW,346,4.0,-999.0,88,-99.99,,,0.00,weatherlink.com 1.10,2013-08-13 13:03:00,
2013-08-13 09:18:00,63.4,60.0,29.90,NNW,338,6.0,-999.0,87,-99.99,,,0.00,weatherlink.com 1.10,2013-08-13 13:18:00,
2013-08-13 09:33:00,64.1,60.0,29.90,North,360,12.0,-999.0,86,-99.99,,,0.00,weatherlink.com 1.10,2013-08-13 13:33:00,
2013-08-13 09:48:00,64.1,60.0,29.90,NNW,333,7.0,-999.0,86,-99.99,,,0.00,weatherlink.com 1.10,2013-08-13 13:48:00,
2013-08-13 10:03:00,63.7,59.0,29.92,NW,319,4.0,-999.0,84,-99.99,,,0.00,weatherlink.com 1.10,2013-08-13 14:03:00,
2013-08-13 10:18:00,63.8,59.0,29.92,NW,315,1.0,-999.0,84,-99.99,,,0.00,weatherlink.com 1.10,2013-08-13 14:18:00,
2013-08-13 10:33:00,63.8,59.0,29.93,NNW,344,9.0,-999.0,84,-99.99,,,0.00,weatherlink.com 1.10,2013-08-13 14:33:00,
2013-08-13 10:48:00,65.1,59.0,29.93,NNW,327,8.0,-999.0,80,-99.99,,,0.00,weatherlink.com 1.10,2013-08-13 14:48:00,
2013-08-13 11:03:00,65.3,59.0,29.93,North,360,12.0,-999.0,80,-99.99,,,0.00,weatherlink.com 1.10,2013-08-13 15:03:00,
2013-08-13 11:18:00,65.3,57.0,29.93,NNW,330,8.0,-999.0,75,-99.99,,,0.00,weatherlink.com 1.10,2013-08-13 15:18:00,
2013-08-13 11:33:00,65.5,56.0,29.94,NW,323,5.0,-999.0,72,-99.99,,,0.00,weatherlink.com 1.10,2013-08-13 15:33:00,
2013-08-13 11:49:00,66.2,57.0,29.94,NNE,23,9.0,-999.0,73,-99.99,,,0.00,weatherlink.com 1.10,2013-08-13 15:49:00,
2013-08-13 12:04:00,66.5,56.0,29.95,NW,309,6.0,-999.0,70,-99.99,,,0.00,weatherlink.com 1.10,2013-08-13 16:04:00,
2013-08-13 12:19:00,66.6,57.0,29.95,NNW,344,9.0,-999.0,71,-99.99,,,0.00,weatherlink.com 1.10,2013-08-13 16:19:00,
2013-08-13 12:34:00,67.2,58.0,29.94,NW,314,9.0,-999.0,73,-99.99,,,0.00,weatherlink.com 1.10,2013-08-13 16:34:00,
2013-08-13 12:49:00,67.6,57.0,29.95,WNW,296,7.0,-999.0,68,-99.99,,,0.00,weatherlink.com 1.10,2013-08-13 16:49:00,
2013-08-13 13:04:00,67.6,57.0,29.95,NW,314,8.0,-999.0,68,-99.99,,,0.00,weatherlink.com 1.10,2013-08-13 17:04:00,
2013-08-13 13:19:00,67.8,55.0,29.95,WNW,295,5.0,-999.0,63,-99.99,,,0.00,weatherlink.com 1.10,2013-08-13 17:19:00,
2013-08-13 13:34:00,67.8,54.0,29.95,NW,317,13.0,-999.0,61,-99.99,,,0.00,weatherlink.com 1.10,2013-08-13 17:34:00,
2013-08-13 13:50:00,67.7,54.0,29.95,NW,313,7.0,-999.0,62,-99.99,,,0.00,weatherlink.com 1.10,2013-08-13 17:50:00,
2013-08-13 14:04:00,67.7,54.0,29.95,NW,305,8.0,-999.0,61,-99.99,,,0.00,weatherlink.com 1.10,2013-08-13 18:04:00,
2013-08-13 14:20:00,68.7,55.0,29.95,WNW,282,11.0,-999.0,61,-99.99,,,0.00,weatherlink.com 1.10,2013-08-13 18:20:00,
2013-08-13 14:35:00,69.4,54.0,29.95,NW,307,14.0,-999.0,59,-99.99,,,0.00,weatherlink.com 1.10,2013-08-13 18:35:00,
2013-08-13 14:50:00,69.4,53.0,29.95,NW,315,13.0,-999.0,57,-99.99,,,0.00,weatherlink.com 1.10,2013-08-13 18:50:00,
2013-08-13 15:05:00,69.0,52.0,29.95,NW,304,7.0,-999.0,55,-99.99,,,0.00,weatherlink.com 1.10,2013-08-13 19:05:00,
2013-08-13 15:20:00,69.5,52.0,29.95,NW,311,7.0,-999.0,55,-99.99,,,0.00,weatherlink.com 1.10,2013-08-13 19:20:00,
2013-08-13 15:35:00,70.0,50.0,29.95,WNW,292,7.0,-999.0,50,-99.99,,,0.00,weatherlink.com 1.10,2013-08-13 19:35:00,
2013-08-13 15:50:00,69.7,49.0,29.95,NNW,336,6.0,-999.0,48,-99.99,,,0.00,weatherlink.com 1.10,2013-08-13 19:50:00,
2013-08-13 16:05:00,69.9,50.0,29.95,NW,309,13.0,-999.0,49,-99.99,,,0.00,weatherlink.com 1.10,2013-08-13 20:05:00,
2013-08-13 16:20:00,70.3,48.0,29.95,North,360,7.0,-999.0,46,-99.99,,,0.00,weatherlink.com 1.10,2013-08-13 20:20:00,
2013-08-13 16:35:00,70.2,50.0,29.96,NW,322,13.0,-999.0,49,-99.99,,,0.00,weatherlink.com 1.10,2013-08-13 20:35:00,
2013-08-13 16:50:00,70.1,50.0,29.95,WNW,299,9.0,-999.0,49,-99.99,,,0.00,weatherlink.com 1.10,2013-08-13 20:50:00,
2013-08-13 17:05:00,69.8,49.0,29.96,NNW,335,9.0,-999.0,48,-99.99,,,0.00,weatherlink.com 1.10,2013-08-13 21:05:00,
2013-08-13 17:21:00,69.8,49.0,29.96,NNW,340,7.0,-999.0,47,-99.99,,,0.00,weatherlink.com 1.10,2013-08-13 21:21:00,
2013-08-13 17:36:00,68.8,50.0,29.96,NNW,330,12.0,-999.0,51,-99.99,,,0.00,weatherlink.com 1.10,2013-08-13 21:36:00,
2013-08-13 17:51:00,68.8,50.0,29.96,North,355,11.0,-999.0,52,-99.99,,,0.00,weatherlink.com 1.10,2013-08-13 21:51:00,
2013-08-13 18:06:00,68.7,49.0,29.97,NNW,343,8.0,-999.0,50,-99.99,,,0.00,weatherlink.com 1.10,2013-08-13 22:06:00,
2013-08-13 18:21:00,68.6,50.0,29.97,WNW,300,11.0,-999.0,52,-99.99,,,0.00,weatherlink.com 1.10,2013-08-13 22:21:00,
2013-08-13 18:36:00,68.2,50.0,29.97,North,9,13.0,-999.0,53,-99.99,,,0.00,weatherlink.com 1.10,2013-08-13 22:36:00,
2013-08-13 18:51:00,67.6,50.0,29.97,NW,319,10.0,-999.0,53,-99.99,,,0.00,weatherlink.com 1.10,2013-08-13 22:51:00,
2013-08-13 19:06:00,67.0,50.0,29.98,North,5,3.0,-999.0,54,-99.99,,,0.00,weatherlink.com 1.10,2013-08-13 23:06:00,
2013-08-13 19:21:00,66.7,49.0,29.98,NNW,333,13.0,-999.0,53,-99.99,,,0.00,weatherlink.com 1.10,2013-08-13 23:21:00,
2013-08-13 19:36:00,65.4,50.0,29.98,NNW,329,6.0,-999.0,57,-99.99,,,0.00,weatherlink.com 1.10,2013-08-13 23:36:00,
2013-08-13 19:51:00,65.5,50.0,29.99,NNW,333,9.0,-999.0,58,-99.99,,,0.00,weatherlink.com 1.10,2013-08-13 23:51:00,
2013-08-13 20:06:00,65.2,50.0,29.99,NNW,346,2.0,-999.0,59,-99.99,,,0.00,weatherlink.com 1.10,2013-08-14 00:06:00,
2013-08-13 20:22:00,64.6,51.0,29.99,NNW,346,1.0,-999.0,61,-99.99,,,0.00,weatherlink.com 1.10,2013-08-14 00:22:00,
2013-08-13 20:37:00,63.8,51.0,29.99,NNW,346,0.0,-999.0,63,-99.99,,,0.00,weatherlink.com 1.10,2013-08-14 00:37:00,
2013-08-13 20:52:00,62.8,51.0,29.99,NNW,346,1.0,-999.0,65,-99.99,,,0.00,weatherlink.com 1.10,2013-08-14 00:52:00,
2013-08-13 21:07:00,62.0,50.0,30.00,NNW,346,2.0,-999.0,66,-99.99,,,0.00,weatherlink.com 1.10,2013-08-14 01:07:00,
2013-08-13 21:22:00,61.4,50.0,30.00,NNW,346,4.0,-999.0,67,-99.99,,,0.00,weatherlink.com 1.10,2013-08-14 01:22:00,
2013-08-13 21:37:00,60.8,50.0,30.01,NNW,346,2.0,-999.0,68,-99.99,,,0.00,weatherlink.com 1.10,2013-08-14 01:37:00,
2013-08-13 21:52:00,60.2,50.0,30.01,NNW,346,0.0,-999.0,70,-99.99,,,0.00,weatherlink.com 1.10,2013-08-14 01:52:00,
2013-08-13 22:07:00,59.8,50.0,30.01,NNW,346,0.0,-999.0,71,-99.99,,,0.00,weatherlink.com 1.10,2013-08-14 02:07:00,
2013-08-13 22:22:00,59.6,51.0,30.02,NNW,346,2.0,-999.0,73,-99.99,,,0.00,weatherlink.com 1.10,2013-08-14 02:22:00,
2013-08-13 22:37:00,59.8,51.0,30.02,NNW,346,4.0,-999.0,73,-99.99,,,0.00,weatherlink.com 1.10,2013-08-14 02:37:00,
2013-08-13 22:52:00,59.6,51.0,30.02,NW,321,4.0,-999.0,72,-99.99,,,0.00,weatherlink.com 1.10,2013-08-14 02:52:00,
2013-08-13 23:08:00,59.2,51.0,30.02,NW,320,4.0,-999.0,73,-99.99,,,0.00,weatherlink.com 1.10,2013-08-14 03:08:00,
2013-08-13 23:23:00,58.8,51.0,30.02,NW,319,4.0,-999.0,74,-99.99,,,0.00,weatherlink.com 1.10,2013-08-14 03:23:00,
2013-08-13 23:38:00,58.4,51.0,30.03,NW,317,6.0,-999.0,75,-99.99,,,0.00,weatherlink.com 1.10,2013-08-14 03:38:00,
2013-08-13 23:53:00,58.1,51.0,30.03,NW,313,2.0,-999.0,76,-99.99,,,0.00,weatherlink.com 1.10,2013-08-14 03:53:00,